Vertical_Velocity
-3 -2 2 3 2 3 1 -3 -1 2 2 1 -2 0 -1 -3 2 -0 1 -1 -3 -1 1 -3 -1 -2 -0 -1 1 2 1 -8 4 -1 -7 -4 2 4 1 -0 2 -2 -7 -2 2 1 -4
-2 1 -2 -5 -5 -3 -1 -3 -2 2 -1 2 -1 0 2 -1 3 -6 0 -4 -3 6 3 -6 -4 -1 2 -1 -0 -2 -1 2 -8 -6 2 1 1 -0 -4 -3 -4 -0 10 2 -1 5 -5
2 4 4 2 -1 0 -0 1 1 -1 -3 -2 1 1 2 1 1 -1 1 -4 -4 7 -1 -5 1 3 -5 -5 1 -1 -0 -6 1 -1 0 -1 -0 -2 1 -5 -1 -4 -7 4 -2 -6 -7
-1 -0 1 2 1 -0 -2 5 2 -3 -1 -0 2 2 0 1 7 -4 -1 5 2 11 -9 -1 -3 -0 -3 -1 2 -2 -4 0 -3 -1 2 1 1 -1 1 2 -5 1 1 4 -7 -1 -12
-0 3 0 2 3 6 -1 -0 -1 2 -4 -3 5 4 -0 -3 1 -2 16 -0 -3 -4 -1 -4 2 0 -10 1 -2 -4 -4 -3 -2 -0 -3 -6 -1 2 -1 -0 -1 -2 -11 2 -6 1 14
5 7 7 8 9 8 4 4 4 4 5 -4 3 2 -2 1 -3 -2 -3 11 -3 -5 0 1 3 -4 -5 -2 -2 -2 -1 3 0 -0 1 0 1 -1 -3 5 -10 7 4 -5 0 -19 17
12 6 4 7 9 8 4 6 4 4 1 -4 -0 2 4 11 0 0 3 2 0 -2 5 6 0 -6 -3 -0 0 -3 1 1 0 1 1 16 -3 -6 3 9 -3 2 4 0 -2 -11 23
-1 9 11 11 15 9 5 3 6 3 -0 1 2 -1 4 -2 3 10 26 -8 1 2 -0 2 1 -4 -2 -2 -3 1 -0 -1 4 1 11 7 -14 8 -3 1 2 0 0 -10 15 -10 1
19 0 6 3 -2 13 -0 9 -3 2 -1 -3 -0 -3 -3 -0 10 14 -1 -4 4 2 -3 3 -2 -5 -1 -3 -1 -1 -1 2 3 5 7 1 -1 0 3 -1 -1 -3 -2 7 6 8 13
10 -6 1 -2 2 -2 -3 -1 6 2 -5 -2 -0 -1 3 6 -5 -1 -2 5 3 2 5 -4 -3 -3 -3 -1 -2 1 3 6 1 1 1 1 6 -3 -6 -2 3 5 4 -11 8 2 -5
-0 2 -2 -6 1 4 -0 -2 0 -5 -6 2 2 -2 14 -0 12 -6 2 1 2 3 2 0 -2 -2 -2 -2 1 4 5 -2 5 2 4 4 -4 1 0 -1 1 -7 16 7 32 18 0
-2 -3 -4 -5 1 -5 -1 2 2 -3 -3 -4 -6 3 4 4 7 8 2 2 1 2 3 -1 -1 -4 -2 -1 4 1 1 -4 0 -2 1 -4 1 2 -3 8 -1 2 6 -7 11 11 -5
-0 2 -3 -2 3 0 -0 1 -3 -8 -4 -5 -4 -1 4 -4 -1 2 3 2 -1 -3 -0 1 -3 -1 6 3 3 -0 4 0 2 -1 1 -1 0 2 2 0 -7 2 12 2 1 -3 5
9 -3 -2 -4 1 1 -2 0 -5 -5 -7 -3 -5 3 -3 3 3 6 -2 1 -2 -0 1 -4 -2 1 6 -2 -0 -1 11 -1 -6 1 3 0 -7 -3 1 8 4 -9 5 6 1 -0 4
12 3 -6 -4 1 -1 -2 -5 -4 -6 -7 -1 -1 0 -0 -0 3 7 -6 0 1 1 -2 1 2 8 0 -2 2 1 -3 -2 -4 -5 12 6 -2 -3 0 1 2 7 -5 -0 8 2 -8
29 2 16 10 -6 -7 3 -5 -9 -6 -4 -4 -2 2 -2 1 3 5 -5 0 1 -1 2 -1 8 -1 1 -2 3 -0 3 1 0 3 -2 0 -3 2 0 0 5 3 1 10 -1 2 0
4 4 -10 -16 -7 -4 -5 -9 -7 -6 -6 -5 -5 -7 -1 -0 8 -2 1 1 0 -0 3 0 3 3 1 -0 -1 0 0 -1 1 3 -2 -8 1 -6 -1 -2 -3 -10 -2 1 1 1 -1
3 5 -6 -10 -6 -6 -7 -13 -15 -10 -12 -11 -10 -8 -0 -1 0 -2 0 1 0 -0 1 0 0 4 -0 -2 -3 1 3 1 -1 2 4 1 6 -4 -1 -4 1 -3 -1 3 7 -1 3
-1 9 2 -1 -5 -12 -11 -7 -9 -12 -5 -7 -9 -6 -2 -2 1 -2 0 -1 -2 -1 1 1 1 2 1 0 3 -3 -0 3 -1 -2 -4 -5 -3 -4 -5 -2 2 2 2 2 -1 -3 -1
-1 4 1 -2 0 -6 -9 -4 -1 -3 -9 -6 -4 -4 -2 -2 0 0 0 -2 -1 -2 -1 -0 -1 -2 -3 0 -0 1 -1 -1 3 -3 2 -2 -2 5 3 3 1 3 3 2 -2 -2 9
-4 3 2 4 -1 2 -0 -5 -2 -1 1 -1 1 -3 -2 -2 -3 -2 -1 -3 -2 0 1 1 3 -0 -1 1 -1 1 -1 -1 2 -0 -2 -6 -1 2 1 -1 0 -1 -0 1 -6 -1 -11
-0 -5 1 5 1 0 2 2 -3 -6 0 -0 -2 -1 -3 -2 -3 -2 -1 -1 -1 0 -2 -1 -0 -0 -1 0 1 0 -2 -1 -1 4 3 -1 -6 -1 -1 -0 -3 -0 1 4 1 -1 -2
-1 4 -3 0 5 1 2 0 1 -0 -3 -2 -0 0 -1 -3 -2 -1 -1 -0 -1 -0 -0 -1 -3 -1 -1 -1 -1 0 -2 -2 -3 -5 -2 4 5 3 3 -5 -7 -1 -4 -2 0 0 -3
10 2 5 1 1 4 2 3 3 2 2 -1 0 -0 1 -0 -2 -2 -2 -2 -1 -3 -2 0 -2 -2 -1 -2 -3 -2 1 -3 -1 0 -1 -3 -4 -7 -4 -5 -2 -2 -3 -3 -4 -2 -0
15 1 -11 4 3 2 1 2 2 3 2 1 -1 0 -1 -1 -1 -2 -2 -2 -1 -2 -2 -1 1 -1 -2 -1 -3 -1 -2 -5 -2 0 0 -0 -2 -2 2 -1 -3 -5 -7 -5 -3 -6 -2
-14 -8 -1 -9 -4 1 2 -1 2 2 3 4 -0 -0 -1 -3 -5 -5 -3 -1 -0 -1 -1 -1 -1 -0 0 -1 -1 0 4 -2 2 -4 -3 -3 -1 1 0 1 1 -3 -4 -4 -3 -6 -3
11 -6 1 5 -6 -4 -0 3 -0 1 2 3 2 -0 -2 -2 -3 -4 -4 -4 -2 -1 -2 0 -2 -2 -1 -1 -0 -0 3 -1 1 -1 0 -0 -1 -0 1 1 2 1 0 -1 3 -1 -1
7 6 -3 -2 -7 -2 -3 -1 1 -1 0 2 3 2 0 -1 -3 -4 -3 -2 -1 -2 -0 -0 -0 -1 0 1 1 1 1 -2 -2 -4 -2 0 -0 -0 -1 -1 1 -2 1 -2 -1 -0 -0
-2 3 8 13 -5 2 1 -1 -2 -1 -0 1 0 2 3 -1 0 -2 -4 -3 -1 -2 -0 -2 -2 0 -2 0 0 1 0 0 0 6 -0 -1 -4 -1 -2 -1 -2 -2 -1 -1 -2 -1 -2
Height
3071 3064 3058 3054 3050 3046 3042 3041 3040 3038 3036 3037 3038 3038 3038 3040 3042 3046 3047 3048 3048 3048 3047 3046 3042 3040 3039 3040 3039 3037 3038 3037 3038 3039 3040 3041 3042 3043 3043 3044 3045 3044 3045 3046 3048 3048 3048
3063 3057 3050 3044 3039 3035 3031 3029 3028 3029 3029 3028 3027 3029 3031 3032 3035 3037 3041 3044 3044 3043 3042 3040 3039 3037 3037 3037 3036 3035 3034 3035 3036 3035 3036 3038 3039 3039 3038 3039 3040 3041 3040 3040 3041 3042 3043
3054 3047 3040 3035 3032 3029 3027 3024 3020 3021 3021 3021 3020 3022 3023 3025 3028 3030 3034 3039 3039 3039 3037 3036 3035 3034 3035 3035 3033 3032 3033 3033 3032 3033 3033 3034 3035 3035 3036 3035 3035 3034 3033 3031 3032 3035 3037
3044 3037 3032 3029 3026 3022 3020 3019 3016 3013 3015 3014 3014 3015 3017 3019 3024 3024 3030 3035 3036 3034 3035 3033 3032 3032 3032 3031 3031 3031 3031 3030 3029 3029 3030 3030 3030 3031 3031 3030 3028 3029 3028 3025 3023 3028 3031
3033 3028 3024 3021 3018 3014 3012 3012 3011 3009 3008 3009 3009 3010 3011 3014 3016 3020 3026 3029 3031 3031 3030 3031 3030 3031 3029 3030 3029 3029 3029 3028 3028 3027 3027 3028 3029 3028 3027 3026 3025 3024 3020 3019 3019 3022 3026
3023 3018 3014 3010 3008 3006 3005 3005 3003 3002 3002 3004 3004 3004 3006 3009 3012 3015 3021 3024 3028 3028 3028 3028 3028 3031 3030 3029 3028 3027 3027 3026 3026 3026 3026 3025 3026 3024 3024 3024 3020 3016 3015 3014 3013 3016 3020
3014 3010 3006 3002 3000 2998 2998 2997 2997 2996 2996 2998 3000 3000 3004 3005 3008 3013 3019 3022 3026 3027 3025 3025 3028 3026 3028 3028 3027 3025 3023 3023 3023 3023 3023 3024 3022 3018 3019 3018 3015 3015 3013 3010 3009 3012 3014
3005 3000 2995 2993 2992 2991 2990 2990 2989 2990 2991 2992 2995 2997 3001 3003 3005 3009 3013 3019 3021 3024 3025 3024 3026 3026 3027 3027 3026 3024 3023 3023 3020 3019 3020 3019 3014 3015 3014 3012 3011 3009 3007 3005 3005 3009 3015
2996 2992 2987 2985 2983 2981 2982 2981 2983 2985 2987 2988 2989 2993 2997 3000 3001 3006 3012 3016 3017 3020 3023 3026 3026 3026 3026 3027 3024 3023 3022 3019 3018 3016 3015 3014 3012 3011 3010 3008 3007 3005 3002 3004 3002 3009 3013
2988 2983 2979 2976 2974 2974 2974 2975 2977 2981 2983 2985 2986 2991 2994 2997 3005 3007 3010 3013 3016 3020 3021 3027 3027 3027 3027 3023 3023 3022 3020 3019 3015 3014 3013 3010 3009 3007 3007 3006 3007 3005 3004 3001 3003 3009 3009
2982 2975 2971 2971 2969 2969 2970 2973 2975 2978 2982 2984 2985 2988 2995 2998 3002 3007 3010 3011 3015 3020 3022 3028 3027 3028 3026 3025 3026 3024 3020 3017 3015 3013 3013 3014 3009 3007 3008 3007 3008 3008 3005 3004 3006 3005 3005
2979 2972 2969 2968 2967 2967 2968 2969 2972 2976 2981 2984 2986 2989 2994 2999 3003 3006 3008 3011 3016 3021 3023 3027 3027 3027 3026 3025 3025 3025 3022 3019 3016 3014 3013 3012 3009 3010 3010 3010 3009 3006 3007 3005 3001 3005 3005
2976 2970 2967 2965 2965 2966 2967 2968 2971 2975 2982 2985 2986 2990 2994 2999 3003 3006 3009 3014 3019 3019 3026 3028 3027 3026 3027 3027 3027 3026 3024 3022 3019 3018 3017 3015 3012 3012 3012 3013 3009 3009 3005 3005 3004 3005 3006
2973 2969 2966 2965 2966 2966 2967 2968 2971 2975 2981 2984 2986 2992 2997 3000 3003 3006 3012 3017 3019 3022 3024 3026 3026 3026 3029 3028 3028 3027 3027 3024 3022 3021 3021 3019 3018 3016 3014 3012 3010 3010 3010 3008 3006 3007 3008
2968 2966 2964 2964 2965 2965 2967 2969 2972 2975 2980 2984 2990 2995 2999 3003 3006 3010 3015 3019 3021 3022 3025 3026 3028 3030 3030 3029 3029 3028 3029 3027 3026 3024 3024 3021 3019 3017 3017 3015 3015 3013 3013 3010 3008 3008 3012
2967 2961 2959 2962 2963 2964 2966 2970 2975 2978 2981 2988 2993 2999 3003 3007 3010 3013 3019 3021 3021 3023 3026 3028 3031 3030 3032 3030 3030 3029 3030 3030 3027 3026 3024 3024 3022 3019 3020 3017 3016 3015 3015 3014 3010 3006 3013
2969 2959 2959 2957 2964 2965 2966 2971 2978 2982 2988 2993 2998 3003 3007 3011 3013 3017 3021 3023 3024 3026 3028 3029 3031 3032 3032 3032 3030 3031 3032 3032 3029 3027 3026 3025 3025 3025 3023 3021 3018 3014 3012 3011 3010 3010 3010
2979 2969 2965 2967 2970 2972 2972 2977 2983 2990 2994 2999 3003 3007 3010 3015 3019 3019 3024 3024 3026 3029 3030 3031 3032 3032 3033 3033 3033 3032 3033 3032 3029 3028 3028 3028 3028 3028 3027 3025 3023 3022 3022 3020 3017 3016 3013
2994 2988 2982 2980 2982 2984 2987 2992 2996 2999 3003 3005 3007 3011 3015 3017 3021 3024 3026 3027 3029 3031 3032 3033 3034 3035 3034 3034 3036 3034 3033 3033 3031 3029 3031 3031 3032 3031 3029 3029 3027 3026 3024 3022 3021 3020 3021
3007 3007 3002 2999 2999 3000 3002 3004 3006 3008 3011 3015 3015 3016 3018 3020 3022 3026 3028 3029 3031 3034 3034 3035 3036 3037 3037 3037 3036 3036 3035 3034 3034 3032 3032 3032 3032 3032 3032 3032 3030 3029 3027 3025 3024 3027 3027
3016 3016 3016 3015 3014 3013 3013 3013 3013 3014 3017 3019 3019 3020 3022 3023 3025 3027 3029 3031 3034 3036 3037 3038 3039 3039 3039 3040 3039 3038 3037 3036 3036 3036 3035 3035 3033 3033 3033 3033 3032 3030 3029 3030 3029 3032 3035
3025 3021 3021 3021 3020 3021 3022 3021 3020 3019 3020 3023 3024 3025 3024 3024 3026 3029 3031 3033 3035 3038 3039 3041 3041 3041 3041 3040 3041 3040 3039 3038 3037 3037 3037 3038 3039 3037 3036 3036 3034 3033 3032 3033 3033 3036 3038
3030 3026 3023 3024 3024 3023 3023 3024 3025 3025 3026 3026 3027 3027 3027 3027 3028 3031 3033 3035 3037 3038 3041 3042 3043 3043 3043 3042 3041 3041 3041 3040 3040 3039 3037 3037 3039 3040 3041 3039 3038 3038 3036 3035 3036 3037 3038
3033 3031 3028 3026 3026 3026 3026 3027 3027 3028 3029 3030 3031 3030 3029 3029 3029 3031 3033 3035 3037 3039 3040 3042 3043 3044 3045 3044 3043 3043 3042 3042 3042 3042 3041 3041 3041 3041 3041 3041 3041 3040 3039 3038 3038 3039 3039
3036 3032 3030 3028 3027 3027 3028 3029 3030 3030 3030 3032 3032 3032 3031 3030 3030 3031 3033 3035 3038 3040 3041 3042 3044 3045 3045 3045 3045 3046 3045 3044 3042 3041 3042 3041 3041 3043 3043 3043 3043 3039 3039 3040 3039 3040 3039
3042 3037 3031 3030 3027 3027 3028 3029 3030 3030 3032 3032 3032 3031 3030 3031 3032 3032 3033 3036 3038 3040 3042 3043 3045 3045 3046 3046 3046 3047 3046 3045 3045 3043 3042 3042 3042 3044 3042 3042 3039 3038 3037 3038 3039 3040 3039
3039 3039 3035 3031 3028 3026 3026 3028 3028 3029 3030 3031 3031 3031 3030 3030 3032 3033 3033 3035 3036 3039 3042 3043 3044 3046 3047 3047 3047 3047 3047 3044 3044 3043 3043 3042 3041 3042 3041 3040 3039 3036 3037 3039 3041 3043 3038
3037 3036 3035 3035 3030 3026 3024 3025 3027 3027 3028 3031 3030 3031 3032 3031 3032 3034 3035 3036 3037 3039 3042 3044 3046 3045 3047 3047 3047 3046 3045 3043 3042 3041 3040 3041 3041 3039 3038 3038 3038 3035 3036 3037 3037 3035 3035
3032 3032 3031 3033 3033 3028 3023 3023 3025 3025 3026 3028 3030 3030 3030 3031 3033 3033 3035 3036 3037 3039 3041 3042 3044 3044 3045 3046 3046 3044 3044 3041 3040 3041 3038 3039 3038 3038 3037 3036 3034 3034 3034 3033 3033 3032 3031